Year,Month,Day,Hour,Minute,Value (Times are PST for temperature in C)
2009,05,30,00,00,10.80
2009,05,30,00,01,10.80
2009,05,30,00,02,10.80
2009,05,30,00,03,10.80
2009,05,30,00,04,10.80
2009,05,30,00,05,10.80
2009,05,30,00,06,10.80
2009,05,30,00,07,10.80
2009,05,30,00,08,10.80
2009,05,30,00,09,10.80
2009,05,30,00,10,10.80
2009,05,30,00,11,10.80
2009,05,30,00,12,10.80
2009,05,30,00,13,10.80
2009,05,30,00,14,10.70
2009,05,30,00,15,10.70
2009,05,30,00,16,10.70
2009,05,30,00,17,10.70
2009,05,30,00,18,10.70
2009,05,30,00,19,10.70
2009,05,30,00,20,10.70
2009,05,30,00,21,10.70
2009,05,30,00,22,10.60
2009,05,30,00,23,10.60
2009,05,30,00,24,10.60
2009,05,30,00,25,10.60
2009,05,30,00,26,10.60
2009,05,30,00,27,10.50
2009,05,30,00,28,10.50
2009,05,30,00,29,10.50
2009,05,30,00,30,10.50
2009,05,30,00,31,10.50
2009,05,30,00,32,10.50
2009,05,30,00,33,10.50
2009,05,30,00,34,10.50
2009,05,30,00,35,10.40
2009,05,30,00,36,10.40
2009,05,30,00,37,10.40
2009,05,30,00,38,10.40
2009,05,30,00,39,10.40
2009,05,30,00,40,10.30
2009,05,30,00,41,10.30
2009,05,30,00,42,10.30
2009,05,30,00,43,10.30
2009,05,30,00,44,10.30
2009,05,30,00,45,10.30
2009,05,30,00,46,10.30
2009,05,30,00,47,10.30
2009,05,30,00,48,10.30
2009,05,30,00,49,10.30
2009,05,30,00,50,10.30
2009,05,30,00,51,10.40
2009,05,30,00,52,10.40
2009,05,30,00,53,10.40
2009,05,30,00,54,10.40
2009,05,30,00,55,10.40
2009,05,30,00,56,10.40
2009,05,30,00,57,10.40
2009,05,30,00,58,10.40
2009,05,30,00,59,10.40
2009,05,30,01,00,10.40
2009,05,30,01,01,10.40
2009,05,30,01,02,10.50
2009,05,30,01,03,10.40
2009,05,30,01,04,10.40
2009,05,30,01,05,10.40
2009,05,30,01,06,10.40
2009,05,30,01,07,10.50
2009,05,30,01,08,10.50
2009,05,30,01,09,10.50
2009,05,30,01,10,10.40
2009,05,30,01,11,10.40
2009,05,30,01,12,10.40
2009,05,30,01,13,10.40
2009,05,30,01,14,10.40
2009,05,30,01,15,10.40
2009,05,30,01,16,10.40
2009,05,30,01,17,10.40
2009,05,30,01,18,10.40
2009,05,30,01,19,10.40
2009,05,30,01,20,10.40
2009,05,30,01,21,10.40
2009,05,30,01,22,10.40
2009,05,30,01,23,10.40
2009,05,30,01,24,10.40
2009,05,30,01,25,10.40
2009,05,30,01,26,10.40
2009,05,30,01,27,10.40
2009,05,30,01,28,10.40
2009,05,30,01,29,10.40
2009,05,30,01,30,10.40
2009,05,30,01,31,10.40
2009,05,30,01,32,10.40
2009,05,30,01,33,10.40
2009,05,30,01,34,10.40
2009,05,30,01,35,10.50
2009,05,30,01,36,10.50
2009,05,30,01,37,10.50
2009,05,30,01,38,10.50
2009,05,30,01,39,10.50
2009,05,30,01,40,10.50
2009,05,30,01,41,10.50
2009,05,30,01,42,10.50
2009,05,30,01,43,10.50
2009,05,30,01,44,10.50
2009,05,30,01,45,10.50
2009,05,30,01,46,10.50
2009,05,30,01,47,10.50
2009,05,30,01,48,10.50
2009,05,30,01,49,10.50
2009,05,30,01,50,10.50
2009,05,30,01,51,10.50
2009,05,30,01,52,10.60
2009,05,30,01,53,10.60
2009,05,30,01,54,10.60
2009,05,30,01,55,10.60
2009,05,30,01,56,10.60
2009,05,30,01,57,10.60
2009,05,30,01,58,10.70
2009,05,30,01,59,10.70
2009,05,30,02,00,10.70
2009,05,30,02,01,10.60
2009,05,30,02,02,10.60
2009,05,30,02,03,10.60
2009,05,30,02,04,10.60
2009,05,30,02,05,10.60
2009,05,30,02,06,10.60
2009,05,30,02,07,10.60
2009,05,30,02,08,10.60
2009,05,30,02,09,10.60
2009,05,30,02,10,10.60
2009,05,30,02,11,10.60
2009,05,30,02,12,10.60
2009,05,30,02,13,10.70
2009,05,30,02,14,10.70
2009,05,30,02,15,10.70
2009,05,30,02,16,10.70
2009,05,30,02,17,10.70
2009,05,30,02,18,10.80
2009,05,30,02,19,10.80
2009,05,30,02,20,10.80
2009,05,30,02,21,10.80
2009,05,30,02,22,10.80
2009,05,30,02,23,10.80
2009,05,30,02,24,10.80
2009,05,30,02,25,10.80
2009,05,30,02,26,10.80
2009,05,30,02,27,10.80
2009,05,30,02,28,10.80
2009,05,30,02,29,10.80
2009,05,30,02,30,10.80
2009,05,30,02,31,10.80
2009,05,30,02,32,10.70
2009,05,30,02,33,10.70
2009,05,30,02,34,10.80
2009,05,30,02,35,10.70
2009,05,30,02,36,10.70
2009,05,30,02,37,10.70
2009,05,30,02,38,10.80
2009,05,30,02,39,10.80
2009,05,30,02,40,10.80
2009,05,30,02,41,10.80
2009,05,30,02,42,10.80
2009,05,30,02,43,10.80
2009,05,30,02,44,10.80
2009,05,30,02,45,10.80
2009,05,30,02,46,10.70
2009,05,30,02,47,10.70
2009,05,30,02,48,10.70
2009,05,30,02,49,10.70
2009,05,30,02,50,10.70
2009,05,30,02,51,10.60
2009,05,30,02,52,10.60
2009,05,30,02,53,10.60
2009,05,30,02,54,10.60
2009,05,30,02,55,10.60
2009,05,30,02,56,10.50
2009,05,30,02,57,10.50
2009,05,30,02,58,10.50
2009,05,30,02,59,10.50
2009,05,30,03,00,10.40
2009,05,30,03,01,10.40
2009,05,30,03,02,10.40
2009,05,30,03,03,10.30
2009,05,30,03,04,10.30
2009,05,30,03,05,10.30
2009,05,30,03,06,10.30
2009,05,30,03,07,10.30
2009,05,30,03,08,10.30
2009,05,30,03,09,10.30
2009,05,30,03,10,10.30
2009,05,30,03,11,10.20
2009,05,30,03,12,10.20
2009,05,30,03,13,10.20
2009,05,30,03,14,10.20
2009,05,30,03,15,10.20
2009,05,30,03,16,10.10
2009,05,30,03,17,10.10
2009,05,30,03,18,10.10
2009,05,30,03,19,10.00
2009,05,30,03,20,10.00
2009,05,30,03,21,9.90
2009,05,30,03,22,9.90
2009,05,30,03,23,9.90
2009,05,30,03,24,9.90
2009,05,30,03,25,9.80
2009,05,30,03,26,9.80
2009,05,30,03,27,9.80
2009,05,30,03,28,9.80
2009,05,30,03,29,9.80
2009,05,30,03,30,9.80
2009,05,30,03,31,9.80
2009,05,30,03,32,9.80
2009,05,30,03,33,9.80
2009,05,30,03,34,9.80
2009,05,30,03,35,9.80
2009,05,30,03,36,9.80
2009,05,30,03,37,9.80
2009,05,30,03,38,9.80
2009,05,30,03,39,9.70
2009,05,30,03,40,9.70
2009,05,30,03,41,9.70
2009,05,30,03,42,9.70
2009,05,30,03,43,9.70
2009,05,30,03,44,9.70
2009,05,30,03,45,9.70
2009,05,30,03,46,9.70
2009,05,30,03,47,9.70
2009,05,30,03,48,9.70
2009,05,30,03,49,9.70
2009,05,30,03,50,9.70
2009,05,30,03,51,9.70
2009,05,30,03,52,9.70
2009,05,30,03,53,9.70
2009,05,30,03,54,9.70
2009,05,30,03,55,9.70
2009,05,30,03,56,9.60
2009,05,30,03,57,9.60
2009,05,30,03,58,9.60
2009,05,30,03,59,9.60
2009,05,30,04,00,9.60
2009,05,30,04,01,9.60
2009,05,30,04,02,9.60
2009,05,30,04,03,9.60
2009,05,30,04,04,9.60
2009,05,30,04,05,9.60
2009,05,30,04,06,9.60
2009,05,30,04,07,9.60
2009,05,30,04,08,9.60
2009,05,30,04,09,9.60
2009,05,30,04,10,9.60
2009,05,30,04,11,9.60
2009,05,30,04,12,9.60
2009,05,30,04,13,9.60
2009,05,30,04,14,9.70
2009,05,30,04,15,9.70
2009,05,30,04,16,9.70
2009,05,30,04,17,9.70
2009,05,30,04,18,9.70
2009,05,30,04,19,9.70
2009,05,30,04,20,9.70
2009,05,30,04,21,9.70
2009,05,30,04,22,9.70
2009,05,30,04,23,9.70
2009,05,30,04,24,9.70
2009,05,30,04,25,9.70
2009,05,30,04,26,9.70
2009,05,30,04,27,9.70
2009,05,30,04,28,9.70
2009,05,30,04,29,9.60
2009,05,30,04,30,9.60
2009,05,30,04,31,9.60
2009,05,30,04,32,9.60
2009,05,30,04,33,9.60
2009,05,30,04,34,9.50
2009,05,30,04,35,9.50
2009,05,30,04,36,9.50
2009,05,30,04,37,9.50
2009,05,30,04,38,9.50
2009,05,30,04,39,9.50
2009,05,30,04,40,9.50
2009,05,30,04,41,9.50
2009,05,30,04,42,9.50
2009,05,30,04,43,9.50
2009,05,30,04,44,9.50
2009,05,30,04,45,9.50
2009,05,30,04,46,9.50
2009,05,30,04,47,9.50
2009,05,30,04,48,9.50
2009,05,30,04,49,9.50
2009,05,30,04,50,9.50
2009,05,30,04,51,9.50
2009,05,30,04,52,9.50
2009,05,30,04,53,9.50
2009,05,30,04,54,9.40
2009,05,30,04,55,9.40
2009,05,30,04,56,9.40
2009,05,30,04,57,9.30
2009,05,30,04,58,9.30
2009,05,30,04,59,9.30
2009,05,30,05,00,9.30
2009,05,30,05,01,9.30
2009,05,30,05,02,9.30
2009,05,30,05,03,9.30
2009,05,30,05,04,9.30
2009,05,30,05,05,9.30
2009,05,30,05,06,9.30
2009,05,30,05,07,9.30
2009,05,30,05,08,9.30
2009,05,30,05,09,9.30
2009,05,30,05,10,9.30
2009,05,30,05,11,9.30
2009,05,30,05,12,9.30
2009,05,30,05,13,9.30
2009,05,30,05,14,9.30
2009,05,30,05,15,9.30
2009,05,30,05,16,9.30
2009,05,30,05,17,9.30
2009,05,30,05,18,9.20
2009,05,30,05,19,9.20
2009,05,30,05,20,9.20
2009,05,30,05,21,9.20
2009,05,30,05,22,9.10
2009,05,30,05,23,9.10
2009,05,30,05,24,9.10
2009,05,30,05,25,9.10
2009,05,30,05,26,9.00
2009,05,30,05,27,9.00
2009,05,30,05,28,9.00
2009,05,30,05,29,9.00
2009,05,30,05,30,8.90
2009,05,30,05,31,8.90
2009,05,30,05,32,8.90
2009,05,30,05,33,8.90
2009,05,30,05,34,8.90
2009,05,30,05,35,8.90
2009,05,30,05,36,8.90
2009,05,30,05,37,8.90
2009,05,30,05,38,8.90
2009,05,30,05,39,8.90
2009,05,30,05,40,8.80
2009,05,30,05,41,8.80
2009,05,30,05,42,8.80
2009,05,30,05,43,8.90
2009,05,30,05,44,8.90
2009,05,30,05,45,8.90
2009,05,30,05,46,8.90
2009,05,30,05,47,8.90
2009,05,30,05,48,8.90
2009,05,30,05,49,8.90
2009,05,30,05,50,8.90
2009,05,30,05,51,8.90
2009,05,30,05,52,9.00
2009,05,30,05,53,9.00
2009,05,30,05,54,9.10
2009,05,30,05,55,9.10
2009,05,30,05,56,9.10
2009,05,30,05,57,9.20
2009,05,30,05,58,9.20
2009,05,30,05,59,9.20
2009,05,30,06,00,9.30
2009,05,30,06,01,9.30
2009,05,30,06,02,9.40
2009,05,30,06,03,9.50
2009,05,30,06,04,9.50
2009,05,30,06,05,9.60
2009,05,30,06,06,9.70
2009,05,30,06,07,9.70
2009,05,30,06,08,9.70
2009,05,30,06,09,9.70
2009,05,30,06,10,9.80
2009,05,30,06,11,9.80
2009,05,30,06,12,9.80
2009,05,30,06,13,9.90
2009,05,30,06,14,9.90
2009,05,30,06,15,10.00
2009,05,30,06,16,10.00
2009,05,30,06,17,10.10
2009,05,30,06,18,10.10
2009,05,30,06,19,10.10
2009,05,30,06,20,10.20
2009,05,30,06,21,10.20
2009,05,30,06,22,10.20
2009,05,30,06,23,10.30
2009,05,30,06,24,10.40
2009,05,30,06,25,10.40
2009,05,30,06,26,10.50
2009,05,30,06,27,10.60
2009,05,30,06,28,10.60
2009,05,30,06,29,10.70
2009,05,30,06,30,10.80
2009,05,30,06,31,10.80
2009,05,30,06,32,10.90
2009,05,30,06,33,11.00
2009,05,30,06,34,11.10
2009,05,30,06,35,11.10
2009,05,30,06,36,11.20
2009,05,30,06,37,11.30
2009,05,30,06,38,11.30
2009,05,30,06,39,11.40
2009,05,30,06,40,11.50
2009,05,30,06,41,11.50
2009,05,30,06,42,11.60
2009,05,30,06,43,11.60
2009,05,30,06,44,11.60
2009,05,30,06,45,11.70
2009,05,30,06,46,11.60
2009,05,30,06,47,11.60
2009,05,30,06,48,11.60
2009,05,30,06,49,11.60
2009,05,30,06,50,11.60
2009,05,30,06,51,11.60
2009,05,30,06,52,11.60
2009,05,30,06,53,11.60
2009,05,30,06,54,11.60
2009,05,30,06,55,11.70
2009,05,30,06,56,11.80
2009,05,30,06,57,11.80
2009,05,30,06,58,11.90
2009,05,30,06,59,12.00
2009,05,30,07,00,12.00
2009,05,30,07,01,12.10
2009,05,30,07,02,12.10
2009,05,30,07,03,12.20
2009,05,30,07,04,12.30
2009,05,30,07,05,12.30
2009,05,30,07,06,12.40
2009,05,30,07,07,12.40
2009,05,30,07,08,12.40
2009,05,30,07,09,12.40
2009,05,30,07,10,12.50
2009,05,30,07,11,12.60
2009,05,30,07,12,12.60
2009,05,30,07,13,12.70
2009,05,30,07,14,12.80
2009,05,30,07,15,12.90
2009,05,30,07,16,13.00
2009,05,30,07,17,13.10
2009,05,30,07,18,13.20
2009,05,30,07,19,13.30
2009,05,30,07,20,13.30
2009,05,30,07,21,13.30
2009,05,30,07,22,13.30
2009,05,30,07,23,13.40
2009,05,30,07,24,13.40
2009,05,30,07,25,13.40
2009,05,30,07,26,13.50
2009,05,30,07,27,13.50
2009,05,30,07,28,13.50
2009,05,30,07,29,13.50
2009,05,30,07,30,13.40
2009,05,30,07,31,13.40
2009,05,30,07,32,13.40
2009,05,30,07,33,13.30
2009,05,30,07,34,13.30
2009,05,30,07,35,13.30
2009,05,30,07,36,13.30
2009,05,30,07,37,13.30
2009,05,30,07,38,13.30
2009,05,30,07,39,13.30
2009,05,30,07,40,13.40
2009,05,30,07,41,13.50
2009,05,30,07,42,13.50
2009,05,30,07,43,13.60
2009,05,30,07,44,13.60
2009,05,30,07,45,13.70
2009,05,30,07,46,13.80
2009,05,30,07,47,13.80
2009,05,30,07,48,13.90
2009,05,30,07,49,13.90
2009,05,30,07,50,13.90
2009,05,30,07,51,13.80
2009,05,30,07,52,13.80
2009,05,30,07,53,13.70
2009,05,30,07,54,13.70
2009,05,30,07,55,13.70
2009,05,30,07,56,13.80
2009,05,30,07,57,13.80
2009,05,30,07,58,13.80
2009,05,30,07,59,13.90
2009,05,30,08,00,13.90
2009,05,30,08,01,13.90
2009,05,30,08,02,13.90
2009,05,30,08,03,14.00
2009,05,30,08,04,14.00
2009,05,30,08,05,14.00
2009,05,30,08,06,14.00
2009,05,30,08,07,14.10
2009,05,30,08,08,14.10
2009,05,30,08,09,14.10
2009,05,30,08,10,14.20
2009,05,30,08,11,14.20
2009,05,30,08,12,14.20
2009,05,30,08,13,14.30
2009,05,30,08,14,14.30
2009,05,30,08,15,14.30
2009,05,30,08,16,14.20
2009,05,30,08,17,14.30
2009,05,30,08,18,14.30
2009,05,30,08,19,14.40
2009,05,30,08,20,14.40
2009,05,30,08,21,14.50
2009,05,30,08,22,14.50
2009,05,30,08,23,14.60
2009,05,30,08,24,14.70
2009,05,30,08,25,14.70
2009,05,30,08,26,14.70
2009,05,30,08,27,14.70
2009,05,30,08,28,14.70
2009,05,30,08,29,14.70
2009,05,30,08,30,14.80
2009,05,30,08,31,14.80
2009,05,30,08,32,14.90
2009,05,30,08,33,15.00
2009,05,30,08,34,15.00
2009,05,30,08,35,15.00
2009,05,30,08,36,15.00
2009,05,30,08,37,15.00
2009,05,30,08,38,15.00
2009,05,30,08,39,15.00
2009,05,30,08,40,15.00
2009,05,30,08,41,15.00
2009,05,30,08,42,15.10
2009,05,30,08,43,15.10
2009,05,30,08,44,15.10
2009,05,30,08,45,15.10
2009,05,30,08,46,15.20
2009,05,30,08,47,15.20
2009,05,30,08,48,15.20
2009,05,30,08,49,15.10
2009,05,30,08,50,15.00
2009,05,30,08,51,15.00
2009,05,30,08,52,15.00
2009,05,30,08,53,15.00
2009,05,30,08,54,15.00
2009,05,30,08,55,15.00
2009,05,30,08,56,15.10
2009,05,30,08,57,15.20
2009,05,30,08,58,15.30
2009,05,30,08,59,15.20
2009,05,30,09,00,15.00
2009,05,30,09,01,15.00
2009,05,30,09,02,15.00
2009,05,30,09,03,15.00
2009,05,30,09,04,15.00
2009,05,30,09,05,15.00
2009,05,30,09,06,15.00
2009,05,30,09,07,15.20
2009,05,30,09,08,15.30
2009,05,30,09,09,15.30
2009,05,30,09,10,15.10
2009,05,30,09,11,15.10
2009,05,30,09,12,15.10
2009,05,30,09,13,15.10
2009,05,30,09,14,15.20
2009,05,30,09,15,15.20
2009,05,30,09,16,15.20
2009,05,30,09,17,15.20
2009,05,30,09,18,15.30
2009,05,30,09,19,15.40
2009,05,30,09,20,15.40
2009,05,30,09,21,15.40
2009,05,30,09,22,15.40
2009,05,30,09,23,15.40
2009,05,30,09,24,15.40
2009,05,30,09,25,15.50
2009,05,30,09,26,15.50
2009,05,30,09,27,15.50
2009,05,30,09,28,15.40
2009,05,30,09,29,15.30
2009,05,30,09,30,15.20
2009,05,30,09,31,15.20
2009,05,30,09,32,15.20
2009,05,30,09,33,15.10
2009,05,30,09,34,15.20
2009,05,30,09,35,15.20
2009,05,30,09,36,15.20
2009,05,30,09,37,15.20
2009,05,30,09,38,15.20
2009,05,30,09,39,15.30
2009,05,30,09,40,15.30
2009,05,30,09,41,15.40
2009,05,30,09,42,15.40
2009,05,30,09,43,15.40
2009,05,30,09,44,15.40
2009,05,30,09,45,15.40
2009,05,30,09,46,15.50
2009,05,30,09,47,15.50
2009,05,30,09,48,15.50
2009,05,30,09,49,15.50
2009,05,30,09,50,15.50
2009,05,30,09,51,15.40
2009,05,30,09,52,15.50
2009,05,30,09,53,15.50
2009,05,30,09,54,15.40
2009,05,30,09,55,15.50
2009,05,30,09,56,15.60
2009,05,30,09,57,15.60
2009,05,30,09,58,15.50
2009,05,30,09,59,15.50
2009,05,30,10,00,15.50
2009,05,30,10,01,15.50
2009,05,30,10,02,15.60
2009,05,30,10,03,15.50
2009,05,30,10,04,15.50
2009,05,30,10,05,15.50
2009,05,30,10,06,15.50
2009,05,30,10,07,15.50
2009,05,30,10,08,15.60
2009,05,30,10,09,15.50
2009,05,30,10,10,15.40
2009,05,30,10,11,15.50
2009,05,30,10,12,15.50
2009,05,30,10,13,15.60
2009,05,30,10,14,15.80
2009,05,30,10,15,15.90
2009,05,30,10,16,16.10
2009,05,30,10,17,16.20
2009,05,30,10,18,16.30
2009,05,30,10,19,16.40
2009,05,30,10,20,16.60
2009,05,30,10,21,16.70
2009,05,30,10,22,16.80
2009,05,30,10,23,16.80
2009,05,30,10,24,16.80
2009,05,30,10,25,16.90
2009,05,30,10,26,16.90
2009,05,30,10,27,17.00
2009,05,30,10,28,16.90
2009,05,30,10,29,16.90
2009,05,30,10,30,16.90
2009,05,30,10,31,16.80
2009,05,30,10,32,16.80
2009,05,30,10,33,16.80
2009,05,30,10,34,16.80
2009,05,30,10,35,16.80
2009,05,30,10,36,16.70
2009,05,30,10,37,16.70
2009,05,30,10,38,16.70
2009,05,30,10,39,16.70
2009,05,30,10,40,16.70
2009,05,30,10,41,16.70
2009,05,30,10,42,16.80
2009,05,30,10,43,16.80
2009,05,30,10,44,16.90
2009,05,30,10,45,16.90
2009,05,30,10,46,16.90
2009,05,30,10,47,17.00
2009,05,30,10,48,16.90
2009,05,30,10,49,17.00
2009,05,30,10,50,17.00
2009,05,30,10,51,17.10
2009,05,30,10,52,17.10
2009,05,30,10,53,17.10
2009,05,30,10,54,17.10
2009,05,30,10,55,17.10
2009,05,30,10,56,17.10
2009,05,30,10,57,17.10
2009,05,30,10,58,17.20
2009,05,30,10,59,17.20
2009,05,30,11,00,17.30
2009,05,30,11,01,17.30
2009,05,30,11,02,17.40
2009,05,30,11,03,17.50
2009,05,30,11,04,17.50
2009,05,30,11,05,17.60
2009,05,30,11,06,17.70
2009,05,30,11,07,17.80
2009,05,30,11,08,17.90
2009,05,30,11,09,18.00
2009,05,30,11,10,18.10
2009,05,30,11,11,18.20
2009,05,30,11,12,18.30
2009,05,30,11,13,18.40
2009,05,30,11,14,18.50
2009,05,30,11,15,18.50
2009,05,30,11,16,18.60
2009,05,30,11,17,18.70
2009,05,30,11,18,18.80
2009,05,30,11,19,18.90
2009,05,30,11,20,19.00
2009,05,30,11,21,19.10
2009,05,30,11,22,19.20
2009,05,30,11,23,19.30
2009,05,30,11,24,19.20
2009,05,30,11,25,19.20
2009,05,30,11,26,19.20
2009,05,30,11,27,19.20
2009,05,30,11,28,19.20
2009,05,30,11,29,19.10
2009,05,30,11,30,19.00
2009,05,30,11,31,18.80
2009,05,30,11,32,18.50
2009,05,30,11,33,18.40
2009,05,30,11,34,18.20
2009,05,30,11,35,18.10
2009,05,30,11,36,18.10
2009,05,30,11,37,18.00
2009,05,30,11,38,18.00
2009,05,30,11,39,17.90
2009,05,30,11,40,17.90
2009,05,30,11,41,17.80
2009,05,30,11,42,17.80
2009,05,30,11,43,17.60
2009,05,30,11,44,17.60
2009,05,30,11,45,17.40
2009,05,30,11,46,17.30
2009,05,30,11,47,17.30
2009,05,30,11,48,17.30
2009,05,30,11,49,17.30
2009,05,30,11,50,17.20
2009,05,30,11,51,17.20
2009,05,30,11,52,17.20
2009,05,30,11,53,17.10
2009,05,30,11,54,17.00
2009,05,30,11,55,16.90
2009,05,30,11,56,16.90
2009,05,30,11,57,17.00
2009,05,30,11,58,17.10
2009,05,30,11,59,17.20
2009,05,30,12,00,17.30
2009,05,30,12,01,17.30
2009,05,30,12,02,17.20
2009,05,30,12,03,17.20
2009,05,30,12,04,17.20
2009,05,30,12,05,17.30
2009,05,30,12,06,17.30
2009,05,30,12,07,17.40
2009,05,30,12,08,17.40
2009,05,30,12,09,17.50
2009,05,30,12,10,17.50
2009,05,30,12,11,17.50
2009,05,30,12,12,17.50
2009,05,30,12,13,17.60
2009,05,30,12,14,17.60
2009,05,30,12,15,17.60
2009,05,30,12,16,17.60
2009,05,30,12,17,17.70
2009,05,30,12,18,17.80
2009,05,30,12,19,17.90
2009,05,30,12,20,18.00
2009,05,30,12,21,18.10
2009,05,30,12,22,18.20
2009,05,30,12,23,18.20
2009,05,30,12,24,18.20
2009,05,30,12,25,18.10
2009,05,30,12,26,18.10
2009,05,30,12,27,18.00
2009,05,30,12,28,17.90
2009,05,30,12,29,17.90
2009,05,30,12,30,17.90
2009,05,30,12,31,18.00
2009,05,30,12,32,18.10
2009,05,30,12,33,18.20
2009,05,30,12,34,18.30
2009,05,30,12,35,18.30
2009,05,30,12,36,18.30
2009,05,30,12,37,18.40
2009,05,30,12,38,18.40
2009,05,30,12,39,18.40
2009,05,30,12,40,18.40
2009,05,30,12,41,18.40
2009,05,30,12,42,18.30
2009,05,30,12,43,18.30
2009,05,30,12,44,18.30
2009,05,30,12,45,18.20
2009,05,30,12,46,18.30
2009,05,30,12,47,18.30
2009,05,30,12,48,18.30
2009,05,30,12,49,18.30
2009,05,30,12,50,18.30
2009,05,30,12,51,18.30
2009,05,30,12,52,18.30
2009,05,30,12,53,18.30
2009,05,30,12,54,18.30
2009,05,30,12,55,18.30
2009,05,30,12,56,18.30
2009,05,30,12,57,18.20
2009,05,30,12,58,18.20
2009,05,30,12,59,18.20
2009,05,30,13,00,18.20
2009,05,30,13,01,18.20
2009,05,30,13,02,18.20
2009,05,30,13,03,18.20
2009,05,30,13,04,18.30
2009,05,30,13,05,18.40
2009,05,30,13,06,18.60
2009,05,30,13,07,18.80
2009,05,30,13,08,18.80
2009,05,30,13,09,18.90
2009,05,30,13,10,19.00
2009,05,30,13,11,19.10
2009,05,30,13,12,19.20
2009,05,30,13,13,19.20
2009,05,30,13,14,19.30
2009,05,30,13,15,19.40
2009,05,30,13,16,19.50
2009,05,30,13,17,19.50
2009,05,30,13,18,19.70
2009,05,30,13,19,19.70
2009,05,30,13,20,19.70
2009,05,30,13,21,19.70
2009,05,30,13,22,19.80
2009,05,30,13,23,20.00
2009,05,30,13,24,20.10
2009,05,30,13,25,20.30
2009,05,30,13,26,20.40
2009,05,30,13,27,20.40
2009,05,30,13,28,20.40
2009,05,30,13,29,20.30
2009,05,30,13,30,20.20
2009,05,30,13,31,20.30
2009,05,30,13,32,20.30
2009,05,30,13,33,20.40
2009,05,30,13,34,20.30
2009,05,30,13,35,20.30
2009,05,30,13,36,20.40
2009,05,30,13,37,20.40
2009,05,30,13,38,20.40
2009,05,30,13,39,20.40
2009,05,30,13,40,20.30
2009,05,30,13,41,20.40
2009,05,30,13,42,20.40
2009,05,30,13,43,20.30
2009,05,30,13,44,20.30
2009,05,30,13,45,20.20
2009,05,30,13,46,20.30
2009,05,30,13,47,20.30
2009,05,30,13,48,20.30
2009,05,30,13,49,20.30
2009,05,30,13,50,20.30
2009,05,30,13,51,20.30
2009,05,30,13,52,20.20
2009,05,30,13,53,20.10
2009,05,30,13,54,20.10
2009,05,30,13,55,20.10
2009,05,30,13,56,20.10
2009,05,30,13,57,20.10
2009,05,30,13,58,20.10
2009,05,30,13,59,20.30
2009,05,30,14,00,20.40
2009,05,30,14,01,20.60
2009,05,30,14,02,20.80
2009,05,30,14,03,20.80
2009,05,30,14,04,20.90
2009,05,30,14,05,21.00
2009,05,30,14,06,21.10
2009,05,30,14,07,21.10
2009,05,30,14,08,21.20
2009,05,30,14,09,21.30
2009,05,30,14,10,21.30
2009,05,30,14,11,21.30
2009,05,30,14,12,21.30
2009,05,30,14,13,21.30
2009,05,30,14,14,21.20
2009,05,30,14,15,21.10
2009,05,30,14,16,20.90
2009,05,30,14,17,20.70
2009,05,30,14,18,20.40
2009,05,30,14,19,20.00
2009,05,30,14,20,19.80
2009,05,30,14,21,19.70
2009,05,30,14,22,19.70
2009,05,30,14,23,19.70
2009,05,30,14,24,19.70
2009,05,30,14,25,19.70
2009,05,30,14,26,19.70
2009,05,30,14,27,19.70
2009,05,30,14,28,19.50
2009,05,30,14,29,19.50
2009,05,30,14,30,19.40
2009,05,30,14,31,19.40
2009,05,30,14,32,19.50
2009,05,30,14,33,19.50
2009,05,30,14,34,19.50
2009,05,30,14,35,19.50
2009,05,30,14,36,19.40
2009,05,30,14,37,19.40
2009,05,30,14,38,19.30
2009,05,30,14,39,19.40
2009,05,30,14,40,19.30
2009,05,30,14,41,19.30
2009,05,30,14,42,19.10
2009,05,30,14,43,19.10
2009,05,30,14,44,19.00
2009,05,30,14,45,18.90
2009,05,30,14,46,18.80
2009,05,30,14,47,18.80
2009,05,30,14,48,18.70
2009,05,30,14,49,18.80
2009,05,30,14,50,18.80
2009,05,30,14,51,18.90
2009,05,30,14,52,18.80
2009,05,30,14,53,18.80
2009,05,30,14,54,18.90
2009,05,30,14,55,18.90
2009,05,30,14,56,18.90
2009,05,30,14,57,19.00
2009,05,30,14,58,18.90
2009,05,30,14,59,18.80
2009,05,30,15,00,18.80
2009,05,30,15,01,18.80
2009,05,30,15,02,18.80
2009,05,30,15,03,18.80
2009,05,30,15,04,18.80
2009,05,30,15,05,18.90
2009,05,30,15,06,19.00
2009,05,30,15,07,19.00
2009,05,30,15,08,18.90
2009,05,30,15,09,18.90
2009,05,30,15,10,18.90
2009,05,30,15,11,19.00
2009,05,30,15,12,19.00
2009,05,30,15,13,19.10
2009,05,30,15,14,19.10
2009,05,30,15,15,19.10
2009,05,30,15,16,19.10
2009,05,30,15,17,19.10
2009,05,30,15,18,19.00
2009,05,30,15,19,19.00
2009,05,30,15,20,18.90
2009,05,30,15,21,18.90
2009,05,30,15,22,18.80
2009,05,30,15,23,18.90
2009,05,30,15,24,18.90
2009,05,30,15,25,19.00
2009,05,30,15,26,19.00
2009,05,30,15,27,19.00
2009,05,30,15,28,19.00
2009,05,30,15,29,19.00
2009,05,30,15,30,19.00
2009,05,30,15,31,18.90
2009,05,30,15,32,18.90
2009,05,30,15,33,19.00
2009,05,30,15,34,19.10
2009,05,30,15,35,19.20
2009,05,30,15,36,19.30
2009,05,30,15,37,19.30
2009,05,30,15,38,19.30
2009,05,30,15,39,19.30
2009,05,30,15,40,19.40
2009,05,30,15,41,19.30
2009,05,30,15,42,19.20
2009,05,30,15,43,19.10
2009,05,30,15,44,19.00
2009,05,30,15,45,18.80
2009,05,30,15,46,18.70
2009,05,30,15,47,18.50
2009,05,30,15,48,18.40
2009,05,30,15,49,18.40
2009,05,30,15,50,18.40
2009,05,30,15,51,18.40
2009,05,30,15,52,18.40
2009,05,30,15,53,18.50
2009,05,30,15,54,18.60
2009,05,30,15,55,18.50
2009,05,30,15,56,18.50
2009,05,30,15,57,18.60
2009,05,30,15,58,18.60
2009,05,30,15,59,18.60
2009,05,30,16,00,18.60
2009,05,30,16,01,18.50
2009,05,30,16,02,18.60
2009,05,30,16,03,18.70
2009,05,30,16,04,18.80
2009,05,30,16,05,18.90
2009,05,30,16,06,19.00
2009,05,30,16,07,19.00
2009,05,30,16,08,19.00
2009,05,30,16,09,19.00
2009,05,30,16,10,19.00
2009,05,30,16,11,19.10
2009,05,30,16,12,19.20
2009,05,30,16,13,19.30
2009,05,30,16,14,19.30
2009,05,30,16,15,19.30
2009,05,30,16,16,19.40
2009,05,30,16,17,19.40
2009,05,30,16,18,19.40
2009,05,30,16,19,19.50
2009,05,30,16,20,19.60
2009,05,30,16,21,19.70
2009,05,30,16,22,19.80
2009,05,30,16,23,19.90
2009,05,30,16,24,20.00
2009,05,30,16,25,20.10
2009,05,30,16,26,20.20
2009,05,30,16,27,20.20
2009,05,30,16,28,20.30
2009,05,30,16,29,20.30
2009,05,30,16,30,20.30
2009,05,30,16,31,20.20
2009,05,30,16,32,20.10
2009,05,30,16,33,20.10
2009,05,30,16,34,20.10
2009,05,30,16,35,20.20
2009,05,30,16,36,20.20
2009,05,30,16,37,20.30
2009,05,30,16,38,20.30
2009,05,30,16,39,20.40
2009,05,30,16,40,20.50
2009,05,30,16,41,20.50
2009,05,30,16,42,20.60
2009,05,30,16,43,20.60
2009,05,30,16,44,20.70
2009,05,30,16,45,20.70
2009,05,30,16,46,20.60
2009,05,30,16,47,20.50
2009,05,30,16,48,20.40
2009,05,30,16,49,20.30
2009,05,30,16,50,20.30
2009,05,30,16,51,20.30
2009,05,30,16,52,20.30
2009,05,30,16,53,20.40
2009,05,30,16,54,20.50
2009,05,30,16,55,20.50
2009,05,30,16,56,20.60
2009,05,30,16,57,20.60
2009,05,30,16,58,20.70
2009,05,30,16,59,20.70
2009,05,30,17,00,20.80
2009,05,30,17,01,20.70
2009,05,30,17,02,20.80
2009,05,30,17,03,20.80
2009,05,30,17,04,20.90
2009,05,30,17,05,20.90
2009,05,30,17,06,20.90
2009,05,30,17,07,20.80
2009,05,30,17,08,20.80
2009,05,30,17,09,20.80
2009,05,30,17,10,20.90
2009,05,30,17,11,21.00
2009,05,30,17,12,21.10
2009,05,30,17,13,21.20
2009,05,30,17,14,21.30
2009,05,30,17,15,21.30
2009,05,30,17,16,21.30
2009,05,30,17,17,21.20
2009,05,30,17,18,21.20
2009,05,30,17,19,21.20
2009,05,30,17,20,21.20
2009,05,30,17,21,21.10
2009,05,30,17,22,21.10
2009,05,30,17,23,21.10
2009,05,30,17,24,21.10
2009,05,30,17,25,21.00
2009,05,30,17,26,21.00
2009,05,30,17,27,21.10